Regional Weather Roundup
Issued by NWS

Home | Current Version | Previous Version | Graphics & Text | Print | Product List | Glossary On
Versions: 1 2 3 4 5 6 7 8 9 10 11 12 13 14 15 16 17 18 19 20 21 22 23 24 25 26 27 28 29 30 31 32 33 34 35 36 37 38 39 40 41 42 43 44 45 46 47 48 49 50
936
ASUS44 KLIX 230401
RWRLA
LOUISIANA WEATHER ROUNDUP
NATIONAL WEATHER SERVICE NEW ORLEANS LA
1100 PM CDT TUE APR 22 2014

NOTE: "FAIR" INDICATES FEW OR NO CLOUDS BELOW 12,000 FEET WITH NO
      SIGNIFICANT WEATHER AND/OR OBSTRUCTIONS TO VISIBILITY.
      SKY/WX - SKY CONDITION AND SIGNIFICANT WEATHER.
      TMP - AIR TEMPERATURE.    DP   - DEWPOINT TEMPERATURE.
      RH  - RELATIVE HUMIDITY.  PRES - PRESSURE.
      HX  - HEAT INDEX.         WCI  - WIND CHILL INDEX.

*  THESE STATIONS ARE NOT NWS OR FAA STATIONS AND ARE NOT UNDER
   NWS QUALITY CONTROL.

LAZ040-048-061>063-065-066-069-230500-
SOUTHEAST LOUISIANA

CITY           SKY/WX    TMP DP  RH WIND       PRES   REMARKS
N.O. AUDUBON     N/A     67  64  91 MISG        N/A
N.O. INTL ARPT PTCLDY    68  63  84 N3        29.93S
N.O. LAKEFRONT CLEAR     69  66  90 N6        29.94S
N.O. DOWNTOWN* FAIR      72  61  68 N5        29.94S
SLIDELL        CLEAR     63  61  93 CALM      29.93S
BATON ROUGE    CLEAR     65  60  84 CALM      29.95R
BOOTHVILLE     CLEAR     70  69  97 W6        29.93S FOG
BELLE CHASSE   PTCLDY    63  60  90 CALM      29.93S FOG
BOGALUSA*        N/A     61  57  88 CALM      29.95F
GALLIANO*      NOT AVBL
NEW ROADS*     NOT AVBL
GONZALES*      FAIR      64  63  97 CALM      29.94S
HAMMOND*       NOT AVBL
HOUMA*         NOT AVBL
PORT FOURCHON* PTCLDY    72  68  88 W8        29.95F

$$

LAZ041-044-053-054-230500-
SOUTHWEST LOUISIANA

CITY           SKY/WX    TMP DP  RH WIND       PRES   REMARKS
LAKE CHARLES   CLEAR     65  64  97 CALM      29.94S FOG
LAFAYETTE      CLEAR     65  62  90 CALM      29.94S
PATTERSON        N/A     64  64 100 CALM      29.98R VSB 1/2
SALT POINT       N/A     72  69  90 CALM      29.94R
NEW IBERIA     CLEAR     67  62  84 CALM      29.95S
CHENAULT AIRPK NOT AVBL

$$

LAZ027-028-230500-
CENTRAL LOUISIANA

CITY           SKY/WX    TMP DP  RH WIND       PRES   REMARKS
FORT POLK      CLEAR     64  60  87 CALM      29.95S
ALEXANDRIA INT CLEAR     64  60  87 CALM      29.94R
ALEXANDRIA     CLEAR     62  59  90 CALM      29.95S

$$

LAZ001-002-230500-
NORTHWEST LOUISIANA

CITY           SKY/WX    TMP DP  RH WIND       PRES   REMARKS
SHREVEPORT     CLEAR     64  59  83 CALM      29.94R
BARKSDALE AFB  CLEAR     64  58  80 CALM      29.94S
DTN SHREVEPORT CLEAR     64  58  80 CALM      29.94S

$$

LAZ014-016-230500-
NORTHEAST LOUISIANA

CITY           SKY/WX    TMP DP  RH WIND       PRES   REMARKS
MONROE         CLEAR     62  59  90 CALM      29.96R
TALLULAH       CLEAR     64  61  90 CALM      29.94S

$$




USA.gov is the U.S. government's official web portal to all federal, state and local government web resources and services.